| time (UTC) | temp F | wind direction | speed MPH | gust MPH | rain 1hr in | rain 24hr in | rain mn in | humidity % | barometer mb |
| 20260510171522 | 54 | 178 | 3.0 | 0.0 | 0.00 | 0.00 | 0.01 | 45 | 1003.6 |
| 20260510170021 | 53 | 169 | 2.0 | 0.0 | 0.00 | 0.00 | 0.01 | 46 | 1003.6 |
| 20260510164522 | 54 | 170 | 4.0 | 0.0 | 0.00 | 0.00 | 0.01 | 46 | 1003.7 |
| 20260510163019 | 53 | 193 | 4.0 | 0.0 | 0.00 | 0.00 | 0.01 | 49 | 1004.0 |
| 20260510161517 | 52 | 207 | 2.0 | 0.0 | 0.00 | 0.00 | 0.01 | 51 | 1004.1 |
| 20260510160015 | 52 | 196 | 3.0 | 0.0 | 0.00 | 0.00 | 0.01 | 49 | 1004.3 |
| 20260510154513 | 54 | 198 | 3.0 | 0.0 | 0.00 | 0.00 | 0.01 | 46 | 1004.3 |
| 20260510153023 | 53 | 198 | 3.0 | 0.0 | 0.00 | 0.00 | 0.01 | 49 | 1004.4 |
| 20260510151511 | 53 | 187 | 0.0 | 0.0 | 0.00 | 0.00 | 0.01 | 51 | 1004.4 |
| 20260510150010 | 52 | 170 | 5.0 | 0.0 | 0.00 | 0.00 | 0.01 | 51 | 1004.5 |
| 20260510144515 | 51 | 196 | 3.0 | 0.0 | 0.00 | 0.00 | 0.01 | 56 | 1004.5 |
| 20260510143008 | 52 | 292 | 3.0 | 0.0 | 0.00 | 0.00 | 0.01 | 53 | 1004.5 |
| 20260510141507 | 54 | 156 | 4.0 | 0.0 | 0.00 | 0.00 | 0.01 | 49 | 1004.7 |
| 20260510140006 | 54 | 193 | 4.0 | 0.0 | 0.00 | 0.00 | 0.01 | 48 | 1004.8 |
| 20260510134505 | 54 | 186 | 3.0 | 0.0 | 0.00 | 0.00 | 0.01 | 50 | 1005.0 |
| 20260510133004 | 53 | 194 | 3.0 | 0.0 | 0.00 | 0.00 | 0.01 | 54 | 1004.9 |
| 20260510131503 | 52 | 182 | 3.0 | 0.0 | 0.00 | 0.00 | 0.01 | 51 | 1005.0 |
| 20260510130002 | 53 | 238 | 3.0 | 0.0 | 0.00 | 0.00 | 0.01 | 54 | 1004.8 |
| 20260510124620 | 53 | 240 | 3.0 | 0.0 | 0.00 | 0.00 | 0.01 | 49 | 1004.9 |
| 20260510123101 | 54 | 203 | 4.0 | 0.0 | 0.00 | 0.00 | 0.01 | 49 | 1004.9 |
| 20260510121558 | 54 | 193 | 3.0 | 0.0 | 0.00 | 0.00 | 0.01 | 50 | 1005.0 |
| 20260510120056 | 54 | 217 | 2.0 | 0.0 | 0.00 | 0.00 | 0.01 | 47 | 1005.0 |
| 20260510114603 | 53 | 192 | 2.0 | 0.0 | 0.00 | 0.00 | 0.01 | 48 | 1005.2 |
| 20260510113050 | 53 | 184 | 2.0 | 0.0 | 0.00 | 0.00 | 0.01 | 49 | 1005.1 |
| 20260510111549 | 52 | 182 | 3.0 | 0.0 | 0.00 | 0.00 | 0.01 | 52 | 1005.0 |
| 20260510110047 | 51 | 185 | 4.0 | 0.0 | 0.00 | 0.00 | 0.01 | 51 | 1005.1 |
| 20260510104604 | 51 | 174 | 2.0 | 0.0 | 0.00 | 0.00 | 0.01 | 53 | 1005.2 |
| 20260510103049 | 52 | 170 | 3.0 | 0.0 | 0.00 | 0.00 | 0.01 | 52 | 1004.9 |
| 20260510101545 | 52 | 136 | 4.0 | 0.0 | 0.00 | 0.00 | 0.01 | 52 | 1005.1 |
| 20260510100052 | 51 | 138 | 4.0 | 0.0 | 0.00 | 0.00 | 0.01 | 54 | 1005.1 |
| 20260510094547 | 51 | 156 | 4.0 | 0.0 | 0.00 | 0.00 | 0.01 | 53 | 1005.4 |
| 20260510093041 | 50 | 188 | 5.0 | 0.0 | 0.00 | 0.00 | 0.01 | 55 | 1005.2 |
| 20260510091541 | 51 | 184 | 4.0 | 0.0 | 0.00 | 0.00 | 0.01 | 55 | 1005.4 |
| 20260510090042 | 50 | 153 | 4.0 | 0.0 | 0.00 | 0.00 | 0.01 | 57 | 1005.3 |
| 20260510084549 | 50 | 113 | 5.0 | 0.0 | 0.00 | 0.00 | 0.01 | 56 | 1005.2 |
| 20260510081535 | 53 | 175 | 5.0 | 0.0 | 0.00 | 0.00 | 0.01 | 53 | 1005.2 |
| 20260510080032 | 53 | 124 | 4.0 | 0.0 | 0.00 | 0.00 | 0.01 | 54 | 1005.4 |
| 20260510074530 | 52 | 184 | 5.0 | 0.0 | 0.00 | 0.00 | 0.01 | 54 | 1005.5 |
| 20260510073032 | 52 | 181 | 3.0 | 0.0 | 0.00 | 0.00 | 0.01 | 56 | 1005.4 |
| 20260510071539 | 51 | 169 | 4.0 | 0.0 | 0.00 | 0.00 | 0.01 | 58 | 1005.6 |
| 20260510070028 | 49 | 158 | 4.0 | 0.0 | 0.00 | 0.00 | 0.01 | 59 | 1005.6 |
| 20260510064526 | 49 | 140 | 2.0 | 0.0 | 0.00 | 0.00 | 0.01 | 60 | 1005.6 |
| 20260510063019 | 48 | 153 | 4.0 | 0.0 | 0.00 | 0.00 | 0.01 | 61 | 1005.7 |
| 20260510061515 | 47 | 175 | 2.0 | 0.0 | 0.00 | 0.00 | 0.01 | 63 | 1005.7 |
| 20260510060014 | 47 | 166 | 4.0 | 0.0 | 0.00 | 0.00 | 0.01 | 63 | 1005.6 |
| 20260510054515 | 47 | 93 | 4.0 | 0.0 | 0.00 | 0.00 | 0.01 | 64 | 1005.6 |
| 20260510053008 | 46 | 132 | 4.0 | 0.0 | 0.00 | 0.00 | 0.01 | 66 | 1005.8 |
| 20260510051512 | 46 | 121 | 5.0 | 0.0 | 0.00 | 0.00 | 0.01 | 67 | 1006.0 |
| 20260510050005 | 46 | 134 | 5.0 | 0.0 | 0.00 | 0.00 | 0.01 | 67 | 1006.1 |
| 20260510044503 | 45 | 169 | 4.0 | 0.0 | 0.00 | 0.00 | 0.01 | 67 | 1006.1 |
| 20260510043002 | 45 | 135 | 4.0 | 0.0 | 0.00 | 0.00 | 0.01 | 71 | 1006.1 |
| 20260510041611 | 45 | 96 | 8.0 | 0.0 | 0.00 | 0.00 | 0.01 | 72 | 1006.3 |
| 20260510040055 | 44 | 132 | 8.0 | 0.0 | 0.00 | 0.00 | 0.01 | 73 | 1006.6 |
| 20260510040026 | 44 | 103 | 8.0 | 0.0 | 0.00 | 0.00 | 0.01 | 73 | 1006.6 |
| 20260510034553 | 44 | 103 | 8.0 | 0.0 | 0.00 | 0.00 | 0.01 | 74 | 1006.7 |
| 20260510033055 | 43 | 115 | 7.0 | 0.0 | 0.00 | 0.00 | 0.01 | 73 | 1006.9 |
| 20260510031556 | 43 | 81 | 6.0 | 0.0 | 0.00 | 0.00 | 0.01 | 75 | 1006.9 |
| 20260510030052 | 43 | 132 | 5.0 | 0.0 | 0.00 | 0.00 | 0.01 | 76 | 1007.4 |
| 20260510024554 | 42 | 119 | 6.0 | 0.0 | 0.00 | 0.00 | 0.01 | 79 | 1007.5 |
| 20260510023043 | 42 | 89 | 7.0 | 0.0 | 0.00 | 0.00 | 0.01 | 81 | 1007.7 |
| 20260510021542 | 42 | 142 | 6.0 | 0.0 | 0.00 | 0.00 | 0.01 | 82 | 1007.8 |
| 20260510020048 | 42 | 105 | 7.0 | 0.0 | 0.00 | 0.00 | 0.01 | 83 | 1008.1 |
| 20260510014539 | 42 | 82 | 7.0 | 0.0 | 0.00 | 0.00 | 0.01 | 85 | 1008.3 |
| 20260510013035 | 42 | 118 | 5.0 | 0.0 | 0.00 | 0.00 | 0.01 | 86 | 1008.7 |
| 20260510011537 | 41 | 84 | 6.0 | 0.0 | 0.00 | 0.00 | 0.01 | 88 | 1008.9 |
| 20260510010038 | 41 | 73 | 5.0 | 0.0 | 0.00 | 0.00 | 0.01 | 90 | 1009.1 |
| 20260510004527 | 41 | 97 | 6.0 | 0.0 | 0.00 | 0.00 | 0.01 | 91 | 1009.2 |
| 20260510003025 | 41 | 123 | 6.0 | 0.0 | 0.00 | 0.00 | 0.01 | 91 | 1009.5 |
| 20260510001524 | 40 | 96 | 3.0 | 0.0 | 0.00 | 0.00 | 0.01 | 91 | 1009.7 |
| 20260510000020 | 40 | 59 | 2.0 | 0.0 | 0.00 | 0.00 | 0.01 | 91 | 1009.8 |
| 20260509234518 | 40 | 71 | 2.0 | 0.0 | 0.00 | 0.00 | 0.01 | 91 | 1009.9 |
| 20260509233016 | 40 | 53 | 3.0 | 0.0 | 0.00 | 0.00 | 0.01 | 91 | 1010.2 |
| 20260509231526 | 40 | 51 | 4.0 | 0.0 | 0.00 | 0.00 | 0.01 | 91 | 1010.4 |
| 20260509230012 | 40 | 41 | 3.0 | 0.0 | 0.00 | 0.00 | 0.01 | 91 | 1010.7 |
| 20260509224512 | 40 | 37 | 3.0 | 0.0 | 0.00 | 0.00 | 0.01 | 91 | 1010.8 |
| 20260509223011 | 40 | 30 | 3.0 | 0.0 | 0.00 | 0.00 | 0.01 | 91 | 1010.5 |
| 20260509221518 | 40 | 33 | 2.0 | 0.0 | 0.00 | 0.00 | 0.01 | 91 | 1011.2 |
| 20260509220003 | 40 | 12 | 2.0 | 0.0 | 0.00 | 0.00 | 0.13 | 91 | 1011.4 |
| 20260509214602 | 41 | 5 | 1.0 | 0.0 | 0.00 | 0.00 | 0.13 | 90 | 1011.4 |
| 20260509213103 | 41 | 281 | 0.0 | 0.0 | 0.00 | 0.00 | 0.13 | 91 | 1011.7 |
| 20260509211559 | 40 | 281 | 0.0 | 0.0 | 0.00 | 0.00 | 0.13 | 91 | 1011.8 |
| 20260509210104 | 40 | 282 | 1.0 | 0.0 | 0.00 | 0.00 | 0.13 | 91 | 1011.8 |
| 20260509204602 | 40 | 285 | 2.0 | 0.0 | 0.00 | 0.00 | 0.13 | 90 | 1012.2 |
| 20260509203059 | 40 | 263 | 2.0 | 0.0 | 0.00 | 0.00 | 0.13 | 90 | 1012.3 |
| 20260509201556 | 41 | 269 | 3.0 | 0.0 | 0.00 | 0.00 | 0.11 | 90 | 1012.3 |
| 20260509200059 | 41 | 269 | 4.0 | 0.0 | 0.00 | 0.00 | 0.10 | 90 | 1012.4 |
| 20260509194551 | 42 | 281 | 5.0 | 0.0 | 0.00 | 0.00 | 0.09 | 88 | 1012.3 |
| 20260509193059 | 43 | 304 | 6.0 | 0.0 | 0.00 | 0.00 | 0.07 | 86 | 1012.1 |
| 20260509191607 | 46 | 116 | 0.0 | 0.0 | 0.00 | 0.00 | 0.04 | 86 | 1011.7 |
| 20260509190054 | 46 | 116 | 0.0 | 0.0 | 0.00 | 0.00 | 0.04 | 86 | 1011.5 |
| 20260509184544 | 46 | 116 | 0.0 | 0.0 | 0.00 | 0.00 | 0.03 | 85 | 1011.5 |
| 20260509183043 | 46 | 117 | 1.0 | 0.0 | 0.00 | 0.00 | 0.03 | 84 | 1011.7 |
| 20260509181540 | 46 | 121 | 4.0 | 0.0 | 0.00 | 0.00 | 0.03 | 84 | 1011.9 |
| 20260509180038 | 46 | 105 | 4.0 | 0.0 | 0.00 | 0.00 | 0.03 | 83 | 1011.9 |
| 20260509174538 | 46 | 86 | 4.0 | 0.0 | 0.00 | 0.00 | 0.02 | 82 | 1012.1 |
| 20260509173050 | 46 | 121 | 4.0 | 0.0 | 0.00 | 0.00 | 0.02 | 81 | 1012.1 |